This demonstration page uses our WeatherBlox Daily Observations layout. Learn more.

Hourly Observations for July 30, 2020

Temp ( °F °C ) Dew Point ( °F °C ) Humidity (%) Winds ( mph kmh ) Pressure ( in mb ) Visibility ( mi km ) Precip ( " mm )
12:15 am 00:15 Cloudy with Heavy Rain 67 19.2 65 18.2 94 94 NNE 9 15 29.9 1013 3 4.82802 0.18 4.572
12:35 am 00:35 Cloudy 67 19.5 66 18.9 96 96 NE 24 39 29.86 1011 2.5 4.02335 0.47 11.938
12:55 am 00:55 Cloudy with Light Rain 68 20 67 19.3 96 96 ENE 20 31 29.84 1010 10 16.0934 0.5 12.7
1:15 am 01:15 Partly Cloudy with Light Rain 69 20.5 67 19.7 95 95 E 18 30 29.81 1010 10 16.0934 0.01 0.254
1:35 am 01:35 Partly Cloudy with Rain 69 20.6 67 19.6 94 94 NNE 8 13 29.82 1010 10 16.0934 0.03 0.762
1:55 am 01:55 Mostly Cloudy with Rain 69 20.3 67 19.5 95 95 ENE 10 17 29.82 1010 10 16.0934 0.06 1.524
2:15 am 02:15 Mostly Cloudy with Light Rain 68 20.2 67 19.3 95 95 E 12 19 29.82 1010 10 16.0934 0.01 0.254
2:35 am 02:35 Cloudy with Light Rain 68 20.1 67 19.5 96 96 NE 8 13 29.83 1010 10 16.0934 0.02 0.508
2:55 am 02:55 Cloudy with Light Rain 68 20 67 19.3 96 96 NNE 7 11 29.84 1010 10 16.0934 0.03 0.762
3:15 am 03:15 Cloudy 68 20 67 19.3 96 96 NE 8 13 29.85 1011 7 11.26538 0 0
3:35 am 03:35 Cloudy 68 20 67 19.2 95 95 N 6 9 29.84 1010 7 11.26538 0 0
3:55 am 03:55 Cloudy 68 19.8 67 19.2 96 96 N 8 13 29.86 1011 7 11.26538 0 0
4:15 am 04:15 Cloudy 68 19.8 67 19.2 96 96 N 7 11 29.87 1011 7 11.26538 0 0
4:35 am 04:35 Cloudy 67 19.7 66 19.1 96 96 NNE 12 19 29.87 1012 7 11.26538 0 0
4:55 am 04:55 Cloudy 67 19.5 66 18.8 96 96 NNE 8 13 29.88 1012 7 11.26538 0 0
5:15 am 05:15 Cloudy 67 19.4 65 18.6 95 95 NNE 8 13 29.87 1012 7 11.26538 0 0
5:35 am 05:35 Cloudy 67 19.2 65 18.5 96 96 N 7 11 29.89 1012 7 11.26538 0 0
5:55 am 05:55 Cloudy 66 19.1 65 18.4 96 96 N 7 11 29.89 1012 7 11.26538 0 0
6:15 am 06:15 Cloudy 66 18.8 65 18.1 96 96 N 7 11 29.9 1012 10 16.0934 0 0
6:35 am 06:35 Cloudy 65 18.6 64 17.8 95 95 NNW 7 11 29.89 1012 10 16.0934 0 0
6:55 am 06:55 Cloudy 65 18.5 64 17.7 95 95 N 7 11 29.91 1013 10 16.0934 0 0
7:15 am 07:15 Cloudy 65 18.5 64 17.7 95 95 N 10 17 29.93 1014 10 16.0934 0 0
7:35 am 07:35 Cloudy 65 18.6 64 17.7 95 95 N 9 15 29.94 1014 10 16.0934 0 0
7:55 am 07:55 Cloudy 66 18.7 64 17.9 95 95 N 12 19 29.94 1014 10 16.0934 0 0
8:15 am 08:15 Cloudy 66 19 64 17.8 93 93 N 10 17 29.95 1014 10 16.0934 0 0
8:35 am 08:35 Cloudy 66 19.1 64 18 93 93 N 10 17 29.94 1014 10 16.0934 0 0
8:55 am 08:55 Cloudy 67 19.2 64 18 93 93 NNE 8 13 29.96 1015 10 16.0934 0 0
9:15 am 09:15 Cloudy 67 19.4 64 18 92 92 N 9 15 29.96 1015 10 16.0934 0 0
9:35 am 09:35 Cloudy 67 19.7 65 18.1 91 91 N 8 13 29.96 1015 10 16.0934 0 0
9:55 am 09:55 Cloudy 68 20 65 18.1 89 89 N 12 19 29.96 1014 10 16.0934 0 0
10:15 am 10:15 Cloudy 69 20.5 65 18.3 87 87 N 13 20 29.95 1014 10 16.0934 0 0
10:35 am 10:35 Cloudy 69 20.6 64 18 85 85 N 13 20 29.96 1015 10 16.0934 0 0
10:55 am 10:55 Cloudy 69 20.5 65 18.2 87 87 NNE 10 17 29.95 1014 10 16.0934 0 0
11:15 am 11:15 Cloudy with Heavy Rain 68 20 65 18.3 90 90 N 13 20 29.98 1015 7 11.26538 0.01 0.254
11:35 am 11:35 Cloudy with Heavy Rain 65 18.6 64 17.7 95 95 NNE 8 13 30 1016 4 6.43736 0.07 1.778
11:55 am 11:55 Cloudy with Heavy Rain 65 18.5 64 17.8 96 96 NNE 7 11 30.01 1016 3 4.82802 0.24 6.096
12:15 pm 12:15 Cloudy with Rain 66 18.9 65 18.2 96 96 Calm 30.02 1016 4 6.43736 0.04 1.016
12:35 pm 12:35 Cloudy with Rain 67 19.2 65 18.6 96 96 Calm 30.01 1016 4 6.43736 0.08 2.032
12:55 pm 12:55 Cloudy with Rain 67 19.7 66 19 96 96 N 3 6 30 1016 7 11.26538 0.11 2.794
1:15 pm 13:15 Cloudy with Light Rain 68 20.2 67 19.2 94 94 N 5 7 30 1016 7 11.26538 0.01 0.254
1:35 pm 13:35 Cloudy with Light Rain 69 20.7 67 19.6 93 93 NNE 5 7 30 1016 10 16.0934 0.02 0.508
1:55 pm 13:55 Cloudy with Light Rain 70 21.2 67 19.6 91 91 NNE 7 11 30 1016 10 16.0934 0.02 0.508
2:15 pm 14:15 Cloudy with Light Rain 71 21.5 67 19.2 87 87 NNE 9 15 30 1016 10 16.0934 0 0
2:35 pm 14:35 Cloudy with Light Rain 71 21.6 67 19.3 87 87 NE 8 13 30 1016 10 16.0934 0 0
2:55 pm 14:55 Cloudy with Light Drizzle 71 21.8 66 19.1 85 85 NE 7 11 30 1016 10 16.0934 0 0
3:15 pm 15:15 Mostly Cloudy with Light Rain 72 22.1 67 19.3 84 84 NE 8 13 30 1016 10 16.0934 0 0
3:35 pm 15:35 Mostly Cloudy 72 22.2 66 19 82 82 NE 10 17 30 1016 10 16.0934 0 0
3:55 pm 15:55 Partly Cloudy 72 22.4 65 18.1 77 77 NE 12 19 30 1016 10 16.0934 0 0
4:15 pm 16:15 Sunny 72 22.3 64 17.5 74 74 NNE 9 15 30 1016 10 16.0934 0 0
4:35 pm 16:35 Partly Cloudy 72 22.2 64 17.7 76 76 NNE 9 15 30 1016 10 16.0934 0 0
4:55 pm 16:55 Mostly Cloudy 73 22.5 64 17.5 73 73 NE 7 11 30.01 1016 10 16.0934 0 0
5:15 pm 17:15 Mostly Cloudy 73 22.7 64 17.7 73 73 N 7 11 30 1016 10 16.0934 0 0
5:35 pm 17:35 Mostly Cloudy 73 22.5 63 17.1 72 72 N 9 15 29.99 1015 10 16.0934 0 0
5:55 pm 17:55 Partly Cloudy 73 22.7 63 17.3 72 72 N 8 13 30 1016 10 16.0934 0 0
6:15 pm 18:15 Sunny 73 22.8 62 16.9 69 69 N 7 11 30 1016 10 16.0934 0 0
6:35 pm 18:35 Sunny 73 23 62 16.5 67 67 N 9 15 29.99 1016 10 16.0934 0 0
6:55 pm 18:55 Sunny 73 22.8 62 16.7 69 69 N 6 9 29.99 1016 10 16.0934 0 0
7:15 pm 19:15 Partly Cloudy 73 23 62 16.8 68 68 N 7 11 29.99 1016 10 16.0934 0 0
7:35 pm 19:35 Partly Cloudy 73 22.5 62 16.7 70 70 N 7 11 29.99 1015 10 16.0934 0 0
7:55 pm 19:55 Partly Cloudy 72 22.2 62 16.7 71 71 N 5 7 30 1016 10 16.0934 0 0
8:15 pm 20:15 Sunny 71 21.4 63 17 76 76 N 7 11 30.01 1016 10 16.0934 0 0
8:35 pm 20:35 Sunny 70 20.9 62 16.7 77 77 N 6 9 30.01 1016 10 16.0934 0 0
8:55 pm 20:55 Clear 68 20.1 62 16.8 81 81 N 6 9 30.02 1016 10 16.0934 0 0
9:15 pm 21:15 Clear 67 19.7 62 16.9 84 84 N 5 7 30.02 1017 10 16.0934 0 0
9:35 pm 21:35 Clear 67 19.3 62 16.8 86 86 NNW 5 7 30.03 1017 10 16.0934 0 0
9:55 pm 21:55 Clear 66 18.8 62 16.7 88 88 NNW 3 6 30.05 1017 10 16.0934 0 0
10:15 pm 22:15 Clear 65 18.6 62 16.5 88 88 Calm 30.05 1018 10 16.0934 0 0
10:35 pm 22:35 Clear 64 18 62 16.5 91 91 N 3 6 30.06 1018 10 16.0934 0 0
10:55 pm 22:55 Clear 64 17.8 62 16.5 92 92 NW 3 6 30.07 1018 10 16.0934 0 0
11:15 pm 23:15 Clear 64 17.5 61 16.3 93 93 NW 6 9 30.07 1018 10 16.0934 0 0
11:35 pm 23:35 Clear 64 17.5 61 16.2 92 92 NW 5 7 30.07 1018 10 16.0934 0 0
11:55 pm 23:55 Clear 64 17.7 61 16.1 90 90 NNW 5 7 30.07 1018 10 16.0934 0 0

Powered by AerisWeather